PRISMA

operational
NORAD ID: 44072 Int'l Des: 2019-015 Owner: ASI Country: I
LEOCIRCULARRETROGRADESSO

PRISMAについて

説明を読み込み中...

リアルタイム位置

3D地球を読み込み中...

次回通過

高度履歴

Altitude vs Time

uPlot chart will show altitude changes over time

軌道要素

1 44072U 19015A 26062.66186389 .00000981 00000-0 12509-3 0 9994
2 44072 97.8732 138.9724 0001258 96.5446 263.5911 14.83697490376407
Epoch: Mar 3, 2026 • Age: 35 hours

現在のステータス

高度 623.0 km
速度 7.55 km/s
衛星直下点 -11.38°S, 2.28°W
打ち上げ日 Mar 22, 2019
運用期間 6.9 years
タイプ other

技術仕様

分類 Payload
質量 879.00 kg
乾燥質量 850.00 kg
総質量 879.00 kg
長さ 3.40 m
直径 1.50 m
スパン 5.00 m
形状 Box+panel
製造者 OHBI
バスタイプ MITA
フェーズステータス In Orbit
所有者/国 ASI/I

大規模コンステレーション

Loading constellations...